PAL453 RPLL-RPMR

Flight info

Callsign PAL453
Flight time 1h 27m
Altitude 38000
Route VERDE2R VERDE A461 SAJ W3 IOO B472 COT W19 MELBY MELBY3P
Aircraft B77W/H-SDE1E2E3FGHIJ2J3J4J5M1RWXY/LB1D1

Departure

Time 2026-04-26 23:36
Airport Ninoy Aquino International Airport (RPLL)

Arrival

Time 2026-04-27 01:04
Airport General Santos International Airport (RPMR)
Time Latitude Longitude Altitude Speed Heading
2026-04-26 23:26 14.50369 121.00378 88 ft 0 kts 50°
2026-04-26 23:27 14.50366 121.00374 88 ft 2 kts 50°
2026-04-26 23:28 14.50353 121.00359 88 ft 2 kts 50°
2026-04-26 23:28 14.50343 121.00346 88 ft 2 kts 50°
2026-04-26 23:28 14.50333 121.00335 88 ft 2 kts 50°
2026-04-26 23:28 14.50324 121.00323 88 ft 2 kts 66°
2026-04-26 23:29 14.50321 121.00308 88 ft 2 kts 99°
2026-04-26 23:29 14.50326 121.00294 88 ft 2 kts 128°
2026-04-26 23:29 14.50337 121.00285 88 ft 2 kts 156°
2026-04-26 23:29 14.50350 121.00281 88 ft 0 kts 181°
2026-04-26 23:30 14.50354 121.00281 88 ft 0 kts 184°
2026-04-26 23:32 14.50348 121.00281 88 ft 3 kts 184°
2026-04-26 23:32 14.50297 121.00279 88 ft 9 kts 182°
2026-04-26 23:32 14.50239 121.00291 88 ft 8 kts 154°
2026-04-26 23:33 14.50188 121.00319 88 ft 8 kts 155°
2026-04-26 23:33 14.50138 121.00319 88 ft 7 kts 202°
2026-04-26 23:33 14.50101 121.00298 88 ft 5 kts 223°
2026-04-26 23:33 14.50076 121.00259 88 ft 10 kts 242°
2026-04-26 23:34 14.50029 121.00165 88 ft 16 kts 244°
2026-04-26 23:34 14.49976 121.00063 88 ft 13 kts 237°
2026-04-26 23:34 14.49943 121.00011 88 ft 8 kts 236°
2026-04-26 23:34 14.49906 120.99972 88 ft 6 kts 204°
2026-04-26 23:35 14.49857 120.99976 88 ft 7 kts 162°
2026-04-26 23:35 14.49815 121.00000 88 ft 6 kts 134°
2026-04-26 23:35 14.49806 121.00042 88 ft 6 kts 77°
2026-04-26 23:35 14.49822 121.00081 88 ft 5 kts 61°
2026-04-26 23:36 14.49873 121.00176 88 ft 42 kts 60°
2026-04-26 23:36 14.50149 121.00668 88 ft 114 kts 60°
2026-04-26 23:36 14.50659 121.01586 105 ft 174 kts 60°
2026-04-26 23:36 14.51280 121.02677 714 ft 178 kts 62°
2026-04-26 23:37 14.51883 121.03794 1506 ft 180 kts 64°
2026-04-26 23:37 14.52489 121.04920 2074 ft 188 kts 60°
2026-04-26 23:37 14.53176 121.06129 2529 ft 204 kts 61°
2026-04-26 23:37 14.53917 121.07459 3022 ft 220 kts 62°
2026-04-26 23:38 14.54690 121.08854 3509 ft 234 kts 62°
2026-04-26 23:38 14.55513 121.10339 4133 ft 244 kts 62°
2026-04-26 23:38 14.56127 121.12009 4673 ft 256 kts 84°
2026-04-26 23:38 14.55904 121.13824 5387 ft 262 kts 112°
2026-04-26 23:39 14.54820 121.15343 6161 ft 268 kts 140°
2026-04-26 23:39 14.53115 121.16144 6854 ft 279 kts 169°
2026-04-26 23:39 14.51170 121.16103 7599 ft 284 kts 184°
2026-04-26 23:39 14.49204 121.15861 8404 ft 285 kts 185°
2026-04-26 23:40 14.47228 121.15607 9158 ft 287 kts 185°
2026-04-26 23:40 14.45229 121.15349 9882 ft 290 kts 186°
2026-04-26 23:40 14.43212 121.15089 10440 ft 300 kts 186°
2026-04-26 23:40 14.41075 121.14814 10834 ft 317 kts 186°
2026-04-26 23:41 14.38818 121.14524 11271 ft 334 kts 186°
2026-04-26 23:41 14.36459 121.14220 11731 ft 350 kts 186°
2026-04-26 23:41 14.33968 121.13899 12218 ft 365 kts 186°
2026-04-26 23:41 14.31411 121.13570 12733 ft 379 kts 186°
2026-04-26 23:42 14.28738 121.13226 13291 ft 392 kts 186°
2026-04-26 23:42 14.23210 121.12514 14882 ft 405 kts 187°
2026-04-26 23:42 14.20401 121.12159 15745 ft 411 kts 187°
2026-04-26 23:43 14.17534 121.11791 16567 ft 417 kts 188°
2026-04-26 23:43 14.14633 121.11417 17389 ft 423 kts 188°
2026-04-26 23:43 14.11682 121.11037 18200 ft 429 kts 188°
2026-04-26 23:43 14.08707 121.10653 18989 ft 434 kts 188°
2026-04-26 23:44 14.05695 121.10265 19769 ft 439 kts 188°
2026-04-26 23:44 14.02661 121.09874 20528 ft 445 kts 188°
2026-04-26 23:44 13.99556 121.09474 21254 ft 450 kts 188°
2026-04-26 23:44 13.96405 121.09068 21971 ft 456 kts 188°
2026-04-26 23:45 13.93244 121.08662 22663 ft 462 kts 188°
2026-04-26 23:45 13.92355 121.08547 22871 ft 463 kts 188°
2026-04-26 23:45 13.89181 121.08140 23652 ft 465 kts 188°
2026-04-26 23:45 13.85933 121.07722 24425 ft 468 kts 188°
2026-04-26 23:46 13.82685 121.07306 25153 ft 471 kts 188°
2026-04-26 23:46 13.79422 121.06887 25884 ft 474 kts 188°
2026-04-26 23:46 13.77773 121.06676 26245 ft 476 kts 188°
2026-04-26 23:46 13.74472 121.06252 26961 ft 479 kts 188°
2026-04-26 23:47 13.71124 121.05823 27666 ft 483 kts 189°
2026-04-26 23:47 13.67791 121.05397 28380 ft 485 kts 189°
2026-04-26 23:47 13.64422 121.04966 29088 ft 487 kts 189°
2026-04-26 23:47 13.60893 121.04516 29884 ft 488 kts 189°
2026-04-26 23:48 13.57533 121.04088 30731 ft 487 kts 189°
2026-04-26 23:48 13.54186 121.03662 31630 ft 483 kts 189°
2026-04-26 23:48 13.50843 121.03265 32416 ft 482 kts 186°
2026-04-26 23:48 13.47462 121.03190 33160 ft 484 kts 182°
2026-04-26 23:49 13.44102 121.03220 33933 ft 483 kts 182°
2026-04-26 23:49 13.40732 121.03258 34769 ft 480 kts 182°
2026-04-26 23:49 13.37355 121.03303 35628 ft 477 kts 180°
2026-04-26 23:49 13.34026 121.03674 36342 ft 478 kts 172°
2026-04-26 23:50 13.30798 121.04539 36860 ft 482 kts 163°
2026-04-26 23:50 13.27661 121.05761 37349 ft 483 kts 161°
2026-04-26 23:50 13.24524 121.07036 37882 ft 482 kts 160°
2026-04-26 23:50 13.21368 121.08321 38112 ft 485 kts 160°
2026-04-26 23:51 13.15122 121.10864 38073 ft 481 kts 160°
2026-04-26 23:51 13.08896 121.13397 38059 ft 482 kts 160°
2026-04-26 23:52 13.02618 121.15949 38042 ft 481 kts 160°
2026-04-26 23:52 12.96412 121.18471 38034 ft 479 kts 160°
2026-04-26 23:53 12.90200 121.20995 38031 ft 479 kts 160°
2026-04-26 23:53 12.83999 121.23514 38032 ft 479 kts 160°
2026-04-26 23:54 12.77794 121.26032 38029 ft 479 kts 160°
2026-04-26 23:54 12.71551 121.28565 38016 ft 479 kts 160°
2026-04-26 23:55 12.65381 121.31065 38002 ft 479 kts 160°
2026-04-26 23:55 12.59148 121.33591 37984 ft 477 kts 160°
2026-04-26 23:56 12.53001 121.36082 37962 ft 476 kts 160°
2026-04-26 23:56 12.46806 121.38590 37953 ft 477 kts 160°
2026-04-26 23:57 12.40636 121.41087 37945 ft 476 kts 160°
2026-04-26 23:57 12.34465 121.43582 37939 ft 476 kts 160°
2026-04-26 23:58 12.28281 121.46082 37923 ft 476 kts 160°
2026-04-26 23:58 12.22124 121.48570 37913 ft 477 kts 160°
2026-04-26 23:59 12.15927 121.51073 37904 ft 476 kts 160°
2026-04-26 23:59 12.09745 121.53570 37904 ft 475 kts 160°
2026-04-27 00:00 12.03556 121.56068 37905 ft 474 kts 160°
2026-04-27 00:00 11.97438 121.58536 37898 ft 474 kts 160°
2026-04-27 00:01 11.91260 121.61028 37903 ft 475 kts 160°
2026-04-27 00:01 11.85122 121.63502 37902 ft 475 kts 160°
2026-04-27 00:02 11.78970 121.65982 37908 ft 475 kts 160°
2026-04-27 00:02 11.72805 121.68467 37915 ft 474 kts 161°
2026-04-27 00:03 11.66754 121.71180 37910 ft 476 kts 151°
2026-04-27 00:03 11.61521 121.75369 37918 ft 481 kts 139°
2026-04-27 00:04 11.56584 121.80064 37916 ft 481 kts 139°
2026-04-27 00:04 11.51666 121.84741 37915 ft 481 kts 139°
2026-04-27 00:05 11.46756 121.89405 37918 ft 481 kts 139°
2026-04-27 00:05 11.41840 121.94073 37917 ft 481 kts 139°
2026-04-27 00:06 11.36902 121.98756 37917 ft 481 kts 139°
2026-04-27 00:06 11.31994 122.03410 37921 ft 481 kts 139°
2026-04-27 00:07 11.27077 122.08070 37933 ft 481 kts 139°
2026-04-27 00:07 11.22275 122.12617 37941 ft 480 kts 139°
2026-04-27 00:08 11.17389 122.17242 37957 ft 480 kts 139°
2026-04-27 00:08 11.12461 122.21905 37979 ft 480 kts 139°
2026-04-27 00:09 11.07550 122.26548 38002 ft 480 kts 139°
2026-04-27 00:09 11.02599 122.31226 37989 ft 481 kts 139°
2026-04-27 00:10 10.97678 122.35871 37971 ft 480 kts 139°
2026-04-27 00:10 10.92787 122.40485 37947 ft 479 kts 138°
2026-04-27 00:11 10.87868 122.45123 37930 ft 479 kts 138°
2026-04-27 00:11 10.82690 122.49415 37912 ft 477 kts 150°
2026-04-27 00:12 10.76748 122.52420 37907 ft 476 kts 156°
2026-04-27 00:12 10.70723 122.55273 37911 ft 476 kts 156°
2026-04-27 00:13 10.64675 122.58134 37910 ft 476 kts 156°
2026-04-27 00:13 10.58630 122.60992 37908 ft 477 kts 156°
2026-04-27 00:14 10.52615 122.63835 37909 ft 476 kts 156°
2026-04-27 00:14 10.46598 122.66679 37908 ft 476 kts 156°
2026-04-27 00:15 10.40569 122.69527 37906 ft 476 kts 156°
2026-04-27 00:15 10.34535 122.72375 37912 ft 477 kts 156°
2026-04-27 00:16 10.28544 122.75200 37914 ft 476 kts 156°
2026-04-27 00:16 10.22480 122.78056 37919 ft 476 kts 156°
2026-04-27 00:17 10.16474 122.80885 37929 ft 476 kts 156°
2026-04-27 00:17 10.10442 122.83726 37945 ft 477 kts 156°
2026-04-27 00:18 10.04414 122.86565 37957 ft 477 kts 156°
2026-04-27 00:18 9.98385 122.89407 37981 ft 477 kts 155°
2026-04-27 00:19 9.92355 122.92246 37990 ft 477 kts 156°
2026-04-27 00:19 9.86321 122.95086 37993 ft 477 kts 156°
2026-04-27 00:20 9.80305 122.97915 38004 ft 476 kts 156°
2026-04-27 00:20 9.74277 123.00748 38003 ft 475 kts 156°
2026-04-27 00:21 9.68274 123.03571 37983 ft 475 kts 156°
2026-04-27 00:21 9.62254 123.06399 37969 ft 476 kts 155°
2026-04-27 00:22 9.56249 123.09219 37951 ft 476 kts 155°
2026-04-27 00:22 9.50248 123.12036 37940 ft 476 kts 156°
2026-04-27 00:23 9.44223 123.14863 37932 ft 475 kts 156°
2026-04-27 00:23 9.38187 123.17694 37925 ft 474 kts 156°
2026-04-27 00:24 9.32219 123.20493 37923 ft 475 kts 155°
2026-04-27 00:24 9.26215 123.23306 37921 ft 475 kts 155°
2026-04-27 00:25 9.20197 123.26126 37917 ft 476 kts 155°
2026-04-27 00:25 9.14160 123.28954 37912 ft 476 kts 155°
2026-04-27 00:26 9.08181 123.31754 37899 ft 475 kts 155°
2026-04-27 00:26 9.02169 123.34568 37891 ft 474 kts 156°
2026-04-27 00:27 8.96155 123.37382 37889 ft 474 kts 155°
2026-04-27 00:27 8.90188 123.40175 37889 ft 474 kts 155°
2026-04-27 00:28 8.84158 123.42995 37891 ft 476 kts 155°
2026-04-27 00:28 8.78129 123.45814 37894 ft 477 kts 155°
2026-04-27 00:29 8.72096 123.48633 37899 ft 477 kts 155°
2026-04-27 00:29 8.66075 123.51446 37910 ft 478 kts 155°
2026-04-27 00:30 8.60030 123.54269 37912 ft 477 kts 155°
2026-04-27 00:30 8.53970 123.57099 37923 ft 477 kts 155°
2026-04-27 00:31 8.47936 123.59914 37925 ft 478 kts 155°
2026-04-27 00:31 8.41904 123.62729 37941 ft 479 kts 155°
2026-04-27 00:32 8.35837 123.65558 37961 ft 479 kts 155°
2026-04-27 00:32 8.29804 123.68371 37972 ft 478 kts 155°
2026-04-27 00:33 8.23732 123.71201 37981 ft 477 kts 155°
2026-04-27 00:33 8.17705 123.74009 37972 ft 478 kts 155°
2026-04-27 00:34 8.11659 123.76824 37960 ft 479 kts 155°
2026-04-27 00:34 8.05579 123.79655 37954 ft 480 kts 155°
2026-04-27 00:35 7.99505 123.82482 37958 ft 481 kts 155°
2026-04-27 00:35 7.93450 123.85300 37972 ft 481 kts 155°
2026-04-27 00:36 7.87340 123.88142 37980 ft 480 kts 155°
2026-04-27 00:36 7.81300 123.90950 37988 ft 478 kts 155°
2026-04-27 00:37 7.75237 123.93768 38004 ft 479 kts 155°
2026-04-27 00:37 7.69174 123.96581 37995 ft 480 kts 156°
2026-04-27 00:38 7.63080 123.99412 37971 ft 481 kts 155°
2026-04-27 00:38 7.56954 124.02258 37950 ft 481 kts 155°
2026-04-27 00:39 7.50853 124.05092 37923 ft 482 kts 155°
2026-04-27 00:39 7.44782 124.07910 37918 ft 482 kts 155°
2026-04-27 00:40 7.38674 124.10744 37918 ft 483 kts 155°
2026-04-27 00:40 7.32563 124.13579 37794 ft 478 kts 155°
2026-04-27 00:41 7.29530 124.14986 36921 ft 481 kts 155°
2026-04-27 00:41 7.26470 124.16404 35938 ft 484 kts 155°
2026-04-27 00:41 7.24127 124.17490 35319 ft 484 kts 155°
2026-04-27 00:41 7.21474 124.18723 34610 ft 482 kts 153°
2026-04-27 00:42 7.18432 124.20162 33781 ft 482 kts 152°
2026-04-27 00:42 7.15565 124.21941 32944 ft 480 kts 143°
2026-04-27 00:42 7.12949 124.23989 32131 ft 480 kts 141°
2026-04-27 00:42 7.10332 124.26107 31288 ft 481 kts 140°
2026-04-27 00:43 7.07724 124.28221 30471 ft 482 kts 140°
2026-04-27 00:43 7.05157 124.30302 29998 ft 474 kts 140°
2026-04-27 00:43 7.02601 124.32374 29514 ft 468 kts 140°
2026-04-27 00:43 7.00074 124.34422 28981 ft 462 kts 140°
2026-04-27 00:44 6.98973 124.35313 28743 ft 460 kts 140°
2026-04-27 00:44 6.97177 124.36769 28356 ft 463 kts 140°
2026-04-27 00:44 6.94661 124.38808 27806 ft 466 kts 140°
2026-04-27 00:44 6.92149 124.40842 27251 ft 462 kts 140°
2026-04-27 00:45 6.89655 124.42862 26686 ft 458 kts 140°
2026-04-27 00:45 6.87169 124.44875 26118 ft 454 kts 140°
2026-04-27 00:45 6.84744 124.46838 25561 ft 450 kts 140°
2026-04-27 00:45 6.82298 124.48817 24984 ft 447 kts 140°
2026-04-27 00:46 6.79867 124.50785 24415 ft 443 kts 140°
2026-04-27 00:46 6.77495 124.52705 23853 ft 440 kts 140°
2026-04-27 00:46 6.75116 124.54629 23282 ft 437 kts 140°
2026-04-27 00:46 6.72753 124.56541 22723 ft 433 kts 140°
2026-04-27 00:47 6.70396 124.58448 22162 ft 430 kts 140°
2026-04-27 00:47 6.68082 124.60319 21614 ft 427 kts 139°
2026-04-27 00:47 6.65764 124.62179 21054 ft 424 kts 141°
2026-04-27 00:47 6.63410 124.63968 20489 ft 422 kts 141°
2026-04-27 00:48 6.61068 124.65736 19919 ft 419 kts 141°
2026-04-27 00:48 6.58737 124.67497 19351 ft 416 kts 141°
2026-04-27 00:48 6.56444 124.69231 18787 ft 414 kts 141°
2026-04-27 00:48 6.54157 124.70962 18212 ft 411 kts 141°
2026-04-27 00:49 6.51853 124.72707 17626 ft 409 kts 141°
2026-04-27 00:49 6.49591 124.74420 17050 ft 407 kts 141°
2026-04-27 00:49 6.47341 124.76125 16489 ft 404 kts 141°
2026-04-27 00:49 6.45100 124.77823 15913 ft 401 kts 141°
2026-04-27 00:50 6.42913 124.79480 15330 ft 390 kts 141°
2026-04-27 00:50 6.38754 124.82880 14275 ft 382 kts 130°
2026-04-27 00:50 6.37116 124.84969 13706 ft 378 kts 123°
2026-04-27 00:51 6.35624 124.87100 13147 ft 376 kts 123°
2026-04-27 00:51 6.34128 124.89250 12594 ft 373 kts 123°
2026-04-27 00:51 6.32650 124.91382 12038 ft 370 kts 122°
2026-04-27 00:51 6.31179 124.93507 11501 ft 365 kts 123°
2026-04-27 00:52 6.29636 124.95489 10979 ft 361 kts 127°
2026-04-27 00:52 6.28049 124.97374 10759 ft 347 kts 128°
2026-04-27 00:52 6.26508 124.99194 10655 ft 330 kts 128°
2026-04-27 00:52 6.25061 125.00904 10544 ft 315 kts 128°
2026-04-27 00:53 6.23671 125.02549 10421 ft 302 kts 128°
2026-04-27 00:53 6.22332 125.04137 10292 ft 290 kts 127°
2026-04-27 00:53 6.21055 125.05653 10161 ft 278 kts 127°
2026-04-27 00:53 6.19838 125.07100 10005 ft 264 kts 127°
2026-04-27 00:54 6.18665 125.08498 9777 ft 264 kts 127°
2026-04-27 00:54 6.17466 125.09929 9387 ft 271 kts 127°
2026-04-27 00:54 6.16252 125.11371 9026 ft 270 kts 127°
2026-04-27 00:54 6.15030 125.12823 8685 ft 268 kts 127°
2026-04-27 00:55 6.13842 125.14235 8363 ft 265 kts 127°
2026-04-27 00:55 6.12662 125.15639 8041 ft 262 kts 127°
2026-04-27 00:55 6.11479 125.17039 7714 ft 260 kts 129°
2026-04-27 00:55 6.10055 125.18127 7344 ft 262 kts 153°
2026-04-27 00:56 6.08877 125.18485 7129 ft 262 kts 165°
2026-04-27 00:56 6.07276 125.18732 6878 ft 260 kts 168°
2026-04-27 00:56 6.05469 125.18951 6584 ft 257 kts 169°
2026-04-27 00:56 6.03676 125.19166 6284 ft 266 kts 169°
2026-04-27 00:57 6.01810 125.19392 5949 ft 267 kts 169°
2026-04-27 00:57 5.99963 125.19616 5623 ft 267 kts 169°
2026-04-27 00:57 5.98126 125.19840 5319 ft 265 kts 169°
2026-04-27 00:57 5.96271 125.20067 4984 ft 267 kts 169°
2026-04-27 00:58 5.94424 125.20293 4671 ft 266 kts 170°
2026-04-27 00:58 5.92584 125.20517 4353 ft 266 kts 170°
2026-04-27 00:58 5.90733 125.20541 3991 ft 267 kts 188°
2026-04-27 00:58 5.89036 125.19788 3634 ft 267 kts 216°
2026-04-27 00:59 5.87868 125.18349 3314 ft 268 kts 244°
2026-04-27 00:59 5.87462 125.16537 3015 ft 265 kts 269°
2026-04-27 00:59 5.87615 125.14732 2807 ft 254 kts 288°
2026-04-27 00:59 5.88445 125.13245 2758 ft 238 kts 307°
2026-04-27 01:00 5.89573 125.12120 2672 ft 221 kts 329°
2026-04-27 01:00 5.90935 125.11581 2592 ft 199 kts 344°
2026-04-27 01:00 5.92243 125.11292 2538 ft 182 kts 350°
2026-04-27 01:00 5.93478 125.11114 2488 ft 177 kts 352°
2026-04-27 01:01 5.94680 125.10966 2429 ft 175 kts 352°
2026-04-27 01:01 5.95902 125.10817 2352 ft 174 kts 352°
2026-04-27 01:01 5.97116 125.10670 2095 ft 171 kts 352°
2026-04-27 01:01 5.98238 125.10520 1793 ft 157 kts 352°
2026-04-27 01:02 5.99304 125.10376 1484 ft 150 kts 354°
2026-04-27 01:02 6.00333 125.10268 1218 ft 148 kts 354°
2026-04-27 01:02 6.01414 125.10151 1121 ft 154 kts 353°
2026-04-27 01:02 6.02454 125.10023 940 ft 151 kts 353°
2026-04-27 01:03 6.03506 125.09898 741 ft 151 kts 353°
2026-04-27 01:03 6.04551 125.09767 550 ft 148 kts 354°
2026-04-27 01:03 6.05482 125.09658 536 ft 117 kts 353°
2026-04-27 01:03 6.06179 125.09571 536 ft 87 kts 353°
2026-04-27 01:04 6.06693 125.09509 536 ft 57 kts 352°
2026-04-27 01:04 6.06952 125.09476 536 ft 26 kts 353°
2026-04-27 01:04 6.07074 125.09464 536 ft 10 kts
2026-04-27 01:04 6.07126 125.09496 536 ft 8 kts 52°